Погода в Жерновце

Россия / Курская область     51°54′13″N   36°18′26″E
темп.,
°C
ветер,
м/с
пор.,
м/с
влажн.,
%
обл.,
%
осадки,
мм/ч
давл.,
гПа
погр.,
м
28 сентября, вт
вт2800:00+8с4889100 0.1 1022399
03:00+8с4891100 0.1 1022422
06:00+7с4994100 0.1 1023473
09:00+8ссв4890100 0.4 1024516
12:00+8св478398 0.1 1026648
15:00+8св567987 0.2 1027682
18:00+7св5779100 0.1 1029613
21:00+7св4884100 0.1 1030652
29 сентября, ср
ср2900:00+6всв4781100 0.0 1032494
03:00+6св4779100 0.0 1032468
06:00+4св49815 0.0 1033344
09:00+6св57712 0.0 1034438
12:00+10всв56515 0.0 10341115
15:00+11св45455 0.0 10331267
18:00+8св34615 0.0 103361
21:00+5св34695 0.0 103451
30 сентября, чт
чт3000:00+5всв2272100 0.0 103427
03:00+4св227748 0.0 103512
06:00+3св22805 0.0 103518
09:00+7всв24667 0.0 1035254
12:00+11в33505 0.0 1035980
15:00+12всв22475 0.0 10341298
18:00+9всв22625 0.0 103414
21:00+7в22713 0.0 103517
1 октября, пт
пт100:00+6вюв22752 0.0 103611
03:00+5вюв11770 0.0 103610
06:00+4в11790 0.0 103610
09:00+8вюв12650 0.0 1037187
12:00+12юв22510 0.0 1036895
15:00+13ююв11473 0.0 10351208
18:00+10вюв01590 0.0 103410
21:00+8вюв11660 0.0 103510
2 октября, сб
сб200:00+7юв22700 0.0 103511
03:00+6юв22732 0.0 103510
06:00+5юв22755 0.0 103510
09:00+9ююв23625 0.0 1034193
12:00+13ююв34495 0.0 1034866
15:00+15ююв34476 0.0 10331246
18:00+11вюв33615 0.0 103223
21:00+9юв33685 0.0 103244